Location: Hylvaty SDH
(49.9612°N, 16.4057°E)
Time: 08:12:33
(UTC+02:00)

ISS - Visible Passes

Search period start: 09 July 2020 00:00
Search period end: 19 July 2020 00:00
Orbit: 417 x 421 km, 51.6° (Epoch: 09 July)

Date Brightness Start Highest point End Pass type
(mag) Time Alt. Az. Time Alt. Az. Time Alt. Az.
09 Jul -2.4 01:05:21 26° ESE 01:05:21 26° ESE 01:07:24 10° E visible
09 Jul -3.7 02:38:16 15° W 02:40:59 79° NNW 02:44:21 10° ENE visible
10 Jul -1.4 00:19:03 13° E 00:19:03 13° E 00:19:35 10° E visible
10 Jul -3.9 01:51:58 33° WSW 01:53:21 84° SSE 01:56:44 10° ENE visible
10 Jul -3.3 03:26:56 10° W 03:30:17 63° N 03:33:37 10° E visible
11 Jul -3.9 01:05:32 62° S 01:05:45 64° SSE 01:09:06 10° ENE visible
11 Jul -3.3 02:39:16 10° W 02:42:37 63° N 02:45:58 10° E visible
11 Jul -3.7 04:16:11 10° WNW 04:19:33 90° SW 04:22:55 10° ESE visible
12 Jul -3.1 00:18:54 39° ESE 00:18:54 39° ESE 00:21:26 10° ENE visible
12 Jul -3.5 01:51:47 11° W 01:54:56 69° N 01:58:18 10° ENE visible
12 Jul -3.6 03:28:32 10° WNW 03:31:55 76° NNE 03:35:16 10° E visible
12 Jul -2.5 23:31:48 25° ESE 23:31:48 25° ESE 23:33:41 10° E visible
13 Jul -3.7 01:04:37 15° W 01:07:16 79° NNW 01:10:39 10° ENE visible
13 Jul -3.4 02:40:52 10° WNW 02:44:14 67° N 02:47:35 10° E visible
13 Jul -2.6 22:40:26 10° SSW 22:43:08 23° SE 22:45:50 10° E visible
14 Jul -3.9 00:16:15 10° WSW 00:19:36 84° SSE 00:22:59 10° ENE visible
14 Jul -3.3 01:53:11 10° W 01:56:32 63° N 01:59:52 10° E visible
14 Jul -3.9 03:30:04 10° WNW 03:33:25 71° SSW 03:36:45 10° ESE visible
14 Jul -2.1 21:53:35 10° S 21:55:39 15° SE 21:57:44 10° E visible
14 Jul -3.9 23:28:38 10° WSW 23:31:58 64° SSE 23:35:18 10° ENE visible
15 Jul -3.3 01:05:28 10° W 01:08:49 64° N 01:12:10 10° E visible
15 Jul -3.8 02:42:23 10° WNW 02:45:45 90° WSW 02:49:07 10° ESE visible
15 Jul -2.7 04:19:26 10° W 04:22:17 25° SW 04:25:07 10° SSE visible
15 Jul -3.5 22:41:07 10° SW 22:44:21 46° SSE 22:47:35 10° ENE visible
16 Jul -3.5 00:17:45 10° W 00:21:06 69° N 00:24:27 10° ENE visible
16 Jul -3.6 01:54:41 10° WNW 01:58:04 75° NNE 02:01:26 10° E visible
16 Jul -3.2 03:31:37 10° W 03:34:44 36° SSW 03:37:51 10° SE visible
16 Jul -3.0 21:53:43 10° SSW 21:56:46 32° SSE 21:59:49 10° E visible
16 Jul -3.7 23:30:01 10° W 23:33:23 80° NNW 23:36:46 10° ENE visible
17 Jul -3.4 01:06:59 10° WNW 01:10:21 66° N 01:13:41 10° E visible
17 Jul -3.7 02:43:51 10° WNW 02:47:08 52° SSW 02:50:24 10° SE visible
17 Jul -1.8 04:22:02 10° WSW 04:23:19 12° SW 04:24:37 10° SSW visible
17 Jul -3.9 22:42:19 10° WSW 22:45:41 84° SSE 22:49:03 10° ENE visible
18 Jul -3.3 00:19:15 10° W 00:22:36 63° N 00:25:57 10° E visible
18 Jul -3.9 01:56:08 10° WNW 01:59:29 71° SSW 02:02:08 15° ESE visible
18 Jul -1.8 03:33:31 10° W 03:39:28 - SSE 03:34:23 14° WSW visible
18 Jul -3.8 21:54:40 10° WSW 21:58:00 64° SSE 22:01:21 10° ENE visible
18 Jul -3.3 23:31:30 10° W 23:34:51 64° N 23:38:12 10° E visible
